Weather History for Kulusuk, Greenland

Change the Weather History Date:

Sunday, January 19, 2014

  Actual Average Record
Temperature  
Mean Temperature 31 °F -  
Max Temperature 32 °F 20 °F 35 °F (2009)
Min Temperature 30 °F 16 °F 6 °F (1998)
Degree Days  
Heating Degree Days 34    
Moisture  
Dew Point 24 °F    
Average Humidity 73    
Maximum Humidity 100    
Minimum Humidity 30    
Precipitation  
Precipitation 0.00 in - - ()
Sea Level Pressure  
Sea Level Pressure 29.51 in    
Wind  
Wind Speed 36 mph ()    
Max Wind Speed 47 mph    
Max Gust Speed 81 mph    
Visibility 1.7 miles    
Events Rain , Snow    
Averages and records for this station are not official NWS values.
T = Trace of Precipitation, MM = Missing Value Source: Averaged Metar Reports

Daily Weather History Graph

Daily Weather History Graph

Search for Another Location

Airport:

Trip Planner

Search our weather history database for the weather conditions in past years. The results will help you decide how hot, cold, wet, or windy it might be!

Date:

Astronomy

Jan. 19, 2014 Rise Set
Actual Time 9:02 AM WGT 2:16 PM WGT
Civil Twilight 7:51 AM WGT 3:28 PM WGT
Nautical Twilight 6:43 AM WGT 4:35 PM WGT
Astronomical Twilight 5:43 AM WGT 5:36 PM WGT
Moon 7:40 PM WGT (1/19) 8:44 AM WGT (1/19)
Length of Visible Light 7h 36m
Length of Day
5h 13m
Waning Gibbous, 90% of the Moon is Illuminated
Jan 19
Waning Gibbous
Jan 24
Last Quarter
Jan 30
New
Feb 6
First Quarter
Feb 14
Full

Hourly Weather History & Observations

Time (WGT) Temp. Windchill Dew Point Humidity Pressure Visibility Wind Dir Wind Speed Gust Speed Precip Events Conditions
12:00 AM 32 °F - 28 °F 80% 29.40 in 1 mi East 35.7 mph - - Snow Light Snow
12:20 AM 32.0 °F 16.0 °F 28.4 °F 87% 29.39 in 0.4 mi ENE 39.1 mph 58.7 mph N/A Snow Light Snow
12:50 AM 32.0 °F 16.3 °F 28.4 °F 87% 29.39 in 0.6 mi ENE 36.8 mph 51.8 mph N/A Snow Light Snow
1:00 AM 32 °F - 28 °F 81% 29.41 in 0 mi ENE 38.0 mph - - Snow Light Snow
1:20 AM 32.0 °F 15.8 °F 28.4 °F 87% 29.39 in 0.6 mi ENE 40.3 mph 66.7 mph N/A Snow Light Snow
1:50 AM 32.0 °F 15.6 °F 30.2 °F 93% 29.42 in 0.3 mi ENE 41.4 mph 66.7 mph N/A Snow Light Snow
2:00 AM 32 °F - 30 °F 89% 29.42 in 0 mi ENE 38.0 mph - - Snow Light Snow
2:20 AM 32.0 °F 16.0 °F 30.2 °F 93% 29.42 in 0.5 mi East 39.1 mph 59.8 mph N/A Snow Light Snow
2:50 AM 32.0 °F 16.0 °F 28.4 °F 87% 29.42 in - East 39.1 mph 55.2 mph N/A Snow Snow
3:00 AM 32 °F - 29 °F 82% 29.45 in 0 mi East 38.0 mph - - Snow Snow
3:20 AM 32.0 °F 17.0 °F 28.4 °F 87% 29.44 in 0.3 mi ENE 33.4 mph 44.9 mph N/A Snow Snow
3:50 AM 32.0 °F 16.0 °F 28.4 °F 87% 29.44 in 0.2 mi East 39.1 mph 80.6 mph N/A Snow Snow
4:00 AM 31 °F - 29 °F 89% 29.46 in 0 mi East 40.3 mph - - Snow Heavy Snow
4:20 AM 32.0 °F - 30.2 °F 93% 29.44 in 0.2 mi North - - N/A Snow Heavy Snow
4:50 AM 30.2 °F - 30.2 °F 100% 29.47 in 0.2 mi North - - N/A Snow Heavy Snow
5:00 AM 31 °F - 29 °F 92% 29.48 in 0 mi ENE 42.6 mph - - Snow Heavy Snow
5:20 AM 30.2 °F - 30.2 °F 100% 29.47 in 0.2 mi North - - N/A Snow Heavy Snow
5:50 AM 30.2 °F - 28.4 °F 93% 29.47 in 0.2 mi North - - N/A Snow Heavy Snow
6:00 AM 31 °F - 29 °F 88% 29.49 in 0 mi ENE 40.3 mph - - Snow Heavy Snow
6:20 AM 30.2 °F 12.9 °F 28.4 °F 93% 29.47 in 0.3 mi ENE 42.6 mph 57.5 mph N/A Snow Snow
6:50 AM 30.2 °F 12.5 °F 28.4 °F 93% 29.47 in 0.2 mi ENE 44.9 mph 74.8 mph N/A Snow Snow
7:00 AM 31 °F - 28 °F 86% 29.50 in 0 mi ENE 41.4 mph - - Snow Snow
7:20 AM 32.0 °F 15.2 °F 28.4 °F 87% 29.47 in 0.3 mi ENE 43.7 mph 65.6 mph N/A Snow Snow
7:50 AM 30.2 °F 12.2 °F 28.4 °F 93% 29.50 in 0.2 mi ENE 47.2 mph 69.0 mph N/A Snow Snow
8:00 AM 31 °F - 28 °F 86% 29.52 in 0 mi ENE 42.6 mph - - Snow Snow
8:20 AM 32.0 °F 15.4 °F 28.4 °F 87% 29.50 in 0.3 mi ENE 42.6 mph 65.6 mph N/A Snow Light Snow
8:50 AM 32.0 °F 15.1 °F 28.4 °F 87% 29.50 in 0.3 mi ENE 44.9 mph 65.6 mph N/A Snow Snow
9:00 AM 31 °F - 28 °F 85% 29.51 in 0 mi ENE 46.0 mph - - Snow Snow
9:20 AM 32.0 °F 14.8 °F 28.4 °F 87% 29.50 in 0.2 mi ENE 47.2 mph 66.7 mph N/A Snow Snow
9:50 AM 30.2 °F 12.5 °F 28.4 °F 93% 29.50 in 0.3 mi ENE 44.9 mph 67.9 mph N/A Snow Light Snow
10:00 AM 31 °F - 28 °F 85% 29.52 in 0 mi ENE 43.7 mph - - Snow Light Snow
10:20 AM 32.0 °F 15.1 °F 28.4 °F 87% 29.50 in 0.3 mi East 44.9 mph 67.9 mph N/A Snow Light Snow
10:50 AM 30.2 °F 12.7 °F 26.6 °F 86% 29.53 in 0.4 mi ENE 43.7 mph 65.6 mph N/A Snow Light Snow
11:00 AM 30 °F - 27 °F 82% 29.54 in 0 mi ENE 41.4 mph - - Snow Light Snow
11:20 AM 30.2 °F 12.9 °F 26.6 °F 86% 29.50 in 0.3 mi ENE 42.6 mph 64.4 mph N/A Snow Light Snow
11:50 AM 32.0 °F 15.2 °F 26.6 °F 80% 29.53 in 0.4 mi ENE 43.7 mph 62.1 mph N/A Snow Light Snow
12:00 PM 32 °F - 25 °F 65% 29.55 in 0 mi ENE 43.7 mph - - Snow Light Snow
12:20 PM 32.0 °F 15.6 °F 24.8 °F 75% 29.53 in - ENE 41.4 mph 66.7 mph N/A Snow Light Snow
12:50 PM 30.2 °F 13.3 °F 24.8 °F 80% 29.53 in 0.4 mi ENE 40.3 mph 54.1 mph N/A Snow Light Snow
1:00 PM 31 °F - 25 °F 69% 29.55 in 0 mi ENE 42.6 mph - - Snow Light Snow
1:20 PM 30.2 °F 12.9 °F 24.8 °F 80% 29.53 in - ENE 42.6 mph 70.2 mph N/A Snow Light Snow
1:50 PM 32.0 °F 15.6 °F 24.8 °F 75% 29.53 in 0.7 mi ENE 41.4 mph 58.7 mph N/A Snow Light Snow
2:00 PM 31 °F - 24 °F 65% 29.54 in 0 mi ENE 43.7 mph - - Snow Light Snow
2:20 PM 32.0 °F 15.6 °F 23.0 °F 69% 29.53 in 0.9 mi ENE 41.4 mph 62.1 mph N/A Snow Light Snow
2:50 PM 30.2 °F 12.5 °F 23.0 °F 75% 29.53 in - ENE 44.9 mph 59.8 mph N/A Snow Light Snow
3:00 PM 32 °F - 20 °F 50% 29.55 in 0 mi ENE 42.6 mph - - Snow Light Snow
3:20 PM 32.0 °F 14.9 °F 23.0 °F 69% 29.53 in 0.4 mi ENE 46.0 mph 67.9 mph N/A Snow Light Snow
3:50 PM 30.2 °F 12.5 °F 23.0 °F 75% 29.53 in - ENE 44.9 mph 63.3 mph N/A Snow Light Snow
4:00 PM 31 °F - 21 °F 54% 29.55 in 0 mi ENE 43.7 mph - - Snow Light Snow
4:20 PM 30.2 °F 12.7 °F 23.0 °F 75% 29.53 in 0.6 mi East 43.7 mph 59.8 mph N/A Snow Light Snow
4:50 PM 32.0 °F 16.0 °F 21.2 °F 64% 29.53 in - ENE 39.1 mph 50.6 mph N/A Rain , Snow Light Rain
5:00 PM 32 °F - 19 °F 46% 29.57 in 1 mi ENE 40.3 mph - - Snow Light Snow
5:20 PM 32.0 °F 16.2 °F 17.6 °F 55% 29.56 in 1.4 mi ENE 38.0 mph 55.2 mph N/A   Light Ice Pellets
5:50 PM 32.0 °F 16.3 °F 19.4 °F 60% 29.56 in - ENE 36.8 mph 49.5 mph N/A   Light Ice Pellets
6:00 PM 31 °F - 17 °F 42% 29.57 in 1 mi ENE 36.8 mph - -   Light Ice Pellets
6:20 PM 32.0 °F 16.5 °F 19.4 °F 60% 29.56 in 1.5 mi ENE 35.7 mph 49.5 mph N/A   Light Ice Pellets
6:50 PM 32.0 °F 16.7 °F 17.6 °F 55% 29.56 in 3.7 mi ENE 34.5 mph - N/A   Light Ice Pellets
7:00 PM 31 °F - 16 °F 40% 29.57 in 1 mi ENE 33.4 mph - -   Light Ice Pellets
7:20 PM 30.2 °F 14.7 °F 17.6 °F 60% 29.56 in 5.0 mi ENE 32.2 mph 44.9 mph N/A   Light Ice Pellets
7:50 PM 30.2 °F 14.9 °F 17.6 °F 60% 29.56 in 6.2 mi East 31.1 mph 44.9 mph N/A Snow Light Snow
8:00 PM 31 °F - 12 °F 30% 29.56 in 4 mi ENE 29.9 mph - - Snow Light Snow
8:20 PM 30.2 °F 14.7 °F 15.8 °F 55% 29.53 in 5.0 mi ENE 32.2 mph 44.9 mph N/A   Light Ice Pellets
8:50 PM 32.0 °F 18.1 °F 15.8 °F 51% 29.53 in 6.2 mi ENE 27.6 mph - N/A Snow Light Snow
9:00 PM 32 °F - 13 °F 30% 29.56 in 9 mi ENE 25.3 mph - - Snow Light Snow
9:20 PM 32.0 °F 18.4 °F 14.0 °F 48% 29.53 in 6.2 mi ENE 26.5 mph 39.1 mph N/A Rain Light Rain Showers
9:50 PM 32.0 °F 18.6 °F 14.0 °F 48% 29.53 in 6.2 mi ENE 25.3 mph - N/A Rain Light Rain Showers
10:00 PM 31 °F - 15 °F 37% 29.55 in 17 mi ENE 26.5 mph - - Rain Light Freezing Rain
10:20 PM 32.0 °F 18.6 °F 15.8 °F 51% 29.53 in 6.2 mi ENE 25.3 mph - N/A Rain Light Rain Showers
10:50 PM 30.2 °F 16.2 °F 17.6 °F 60% 29.53 in 6.2 mi ENE 25.3 mph 38.0 mph N/A Rain Light Freezing Rain
11:00 PM 31 °F - 15 °F 37% 29.56 in 4 mi ENE 25.3 mph - - Snow Light Snow Showers
11:20 PM 30.2 °F 15.4 °F 17.6 °F 60% 29.53 in 5.0 mi ENE 28.8 mph 43.7 mph N/A Rain Light Freezing Rain
11:50 PM 30.2 °F 16.5 °F 15.8 °F 55% 29.53 in 6.2 mi ENE 24.2 mph - N/A Snow Light Snow Showers